Terminal Aerodrome Forecast
Issued by NWS

Current Version | Previous Version | Text Only | Print | Product List | Glossary Off
Versions: 1 2 3 4 5 6 7 8 9 10 11 12 13 14 15 16 17 18 19 20 21 22 23 24 25 26 27 28 29 30 31

144
FTUS41 KILN 302102 AAC
TAFLCK
TAF AMD
KLCK 302102Z 3021/0118 22012KT P6SM VCSH SCT025 BKN035
      TEMPO 3021/3023 -SHRA BKN025
     FM302300 25008KT P6SM BKN035
     FM010400 24008KT P6SM OVC025
     FM011500 25012G20KT P6SM BKN025=

USA.gov is the U.S. government's official web portal to all federal, state and local government web resources and services.